Погода в Билибино

Россия / Чукотский автономный округ     68°03′25″N   166°27′04″E
В апреле 2022 года жителям России запретили посещать сайт meteo.paraplan.net по решению Генеральной прокуратуры. Аудитория сайта уменьшилась в 10 раз. Владельцы сайта не видят смысла в поддержке погодного сервера в таких условиях. Сайт будет закрыт в октябре.
темп.,
°C
ветер,
м/с
пор.,
м/с
влажн.,
%
обл.,
%
осадки,
мм/ч
давл.,
гПа
погр.,
м
26 сентября, пн
пн2600:00−4всв1189100 0.0 102310
03:00−5всв228564 0.0 102210
06:00−6всв228574 0.0 102210
09:00−4всв227047 0.0 1021173
12:00−2всв2356100 0.0 1020708
15:000всв34469 0.0 1018953
18:00−3всв22575 0.0 101813
21:00−5всв227520 0.0 101810
27 сентября, вт
вт2700:00−7всв22845 0.0 101810
03:00−7всв118613 0.0 101710
06:00−8в118764 0.0 101610
09:00−5в117418 0.0 101696
12:00−3в115826 0.0 1014497
15:00−1вюв11485 0.0 1013863
18:00−4вюв00592 0.0 101310
21:00−5всв11663 0.0 101310
28 сентября, ср
ср2800:00−7всв22735 0.0 101410
03:00−8всв22785 0.0 101410
06:00−8всв22805 0.0 101410
09:00−6всв12690 0.0 101495
12:00−3всв12540 0.0 1013472
15:00−1в13445 0.0 1013805
18:00−4в11575 0.0 101310
21:00−6в11696 0.0 101410
29 сентября, чт
чт2900:00−7в11745 0.0 101410
03:00−8в11775 0.0 101510
06:00−9в11790 0.0 101510
09:00−6в11661 0.0 101547
12:00−3вюв11544 0.0 1013308
15:00−1юв11460 0.0 1012489
18:00−5в11605 0.0 101210
21:00−6в11695 0.0 101210
30 сентября, пт
пт3000:00−7в21739 0.0 101210
03:00−7в227683 0.0 101110
06:00−8в2179100 0.0 101110
09:00−6в1169100 0.0 101076
12:00−3вюв1258100 0.0 1009233
15:00−1вюв1254100 0.0 1008265
18:00−3вюв1167100 0.0 100810
21:00−3в1169100 0.0 100910